Regional Weather Roundup
Issued by NWS

Home | Current Version | Previous Version | Text Only | Print | Product List | Glossary On
Versions: 1 2 3 4 5 6 7 8 9 10 11 12 13 14 15 16 17 18 19 20 21 22 23 24 25 26 27 28 29 30 31 32 33 34 35 36 37 38 39 40 41 42 43 44 45 46 47 48 49 50
000
ASUS43 KTOP 251959
RWRKS

WEATHER ROUNDUP FOR KANSAS
NATIONAL WEATHER SERVICE GOODLAND KS
200 PM CST THU DEC 25 2014

NOTE:  "FAIR" INDICATES FEW OR NO CLOUDS BELOW 12,000 FEET WITH NO
SIGNIFICANT WEATHER AND/OR OBSTRUCTIONS TO VISIBILITY.

KSZ001>006-013>018-027>032-041>047-252100-
NORTHWEST KANSAS

CITY           SKY/WX    TMP DP  RH WIND       PRES   REMARKS
GOODLAND       SUNNY     46  24  42 N10       29.45R
HAYS           SUNNY     57  27  30 S21       29.45F
HILL CITY      SUNNY     53  25  33 W8        29.43F
RUSSELL        MOSUNNY   55  28  35 S23G35    29.45S
$$

KSZ061>065-074>080-084>089-252100-
SOUTHWEST KANSAS

CITY           SKY/WX    TMP DP  RH WIND       PRES   REMARKS
DODGE CITY     CLOUDY    54  19  25 S17G31    29.50R
ELKHART          N/A     63  22  21 S12         N/A
GARDEN CITY    PTSUNNY   50  25  37 S16       29.47R
GREAT BEND     MOSUNNY   54  27  35 S30G36    29.46F
LIBERAL        CLOUDY    55  23  28 S20G26    29.52S
$$

KSZ066>073-081>083-090>101-252100-
SOUTHEAST KANSAS

CITY           SKY/WX    TMP DP  RH WIND       PRES   REMARKS
CHANUTE        SUNNY     55  32  41 S21G32    29.73F
COFFEYVILLE    SUNNY     56  30  37 S25G35    29.76F
HUTCHINSON     PTSUNNY   55  27  34 S24G32    29.57S
NEWTON         PTSUNNY   52  27  37 S29G37    29.59F
PARSONS        SUNNY     56  30  37 S15G25    29.76F
WICHITA INTL   PTSUNNY   55  27  34 S25G41    29.60S
WICHITA JABRA  PTSUNNY   56  26  31 S33G45    29.60S
WINFIELD       MOSUNNY   56  27  32 S25G37    29.66F
$$

KSZ007>012-019>026-033>040-048>060-102>105-252100-
NORTHEAST KANSAS

CITY           SKY/WX    TMP DP  RH WIND       PRES   REMARKS
CONCORDIA      SUNNY     49  30  48 S21G26    29.51F
EMPORIA        SUNNY     54  28  36 S30G40    29.62F
LAWRENCE       PTSUNNY   53  30  41 S20G37    29.67F
MANHATTAN      MOSUNNY   53  29  39 S20G29    29.57F
OLATHE IND     MOSUNNY   52  31  44 S26G37    29.69F
OLATHE EXE     MOSUNNY   53  30  41 S22G33    29.68F
SALINA         MOSUNNY   52  30  43 S22G29    29.54F
TOPEKA BILLARD PTSUNNY   54  29  38 S23G30    29.64F
TOPEKA FORBES  PTSUNNY   55  30  38 S32G40    29.62F
$$



USA.gov is the U.S. government's official web portal to all federal, state and local government web resources and services.